• în Republica Moldova
  • Lista ţărilor
  • Pe 7 zile
  • Temperatura apei
  • Hartă satelitară
  • Meteo pe hartă
  • Widget-uri
  • user-avatar
    Intrare

    Meteo pe oră la Innsbruck

    Astăzi, 22 Ianuarie, Duminică

    Timp Temperatura Precipitaţii Vânt Presiune Umiditate
    00:00 -16°C° 0 mm 2 m/s 594 mmHg 88%
    01:00 -16°C° 0 mm 2 m/s 593 mmHg 88%
    02:00 -16°C° 0 mm 2 m/s 593 mmHg 88%
    03:00 -16°C° 0 mm 2 m/s 593 mmHg 88%
    04:00 -16°C° 0 mm 2 m/s 593 mmHg 87%
    05:00 -16°C° 0 mm 2 m/s 593 mmHg 87%
    06:00 -16°C° 0 mm 2 m/s 593 mmHg 87%
    07:00 -16°C° 0 mm 2 m/s 592 mmHg 87%
    08:00 -15°C° 0 mm 2 m/s 593 mmHg 87%
    09:00 -13°C° 0 mm 2 m/s 594 mmHg 88%
    10:00 -10°C° 0 mm 2 m/s 595 mmHg 88%
    11:00 -8°C° 0 mm 2 m/s 596 mmHg 89%
    12:00 -7°C° 0 mm 2 m/s 596 mmHg 91%
    13:00 -5°C° 0 mm 2 m/s 596 mmHg 92%
    14:00 -6°C° 0 mm 2 m/s 596 mmHg 93%
    15:00 -8°C° 0 mm 2 m/s 595 mmHg 93%
    16:00 -9°C° 0 mm 2 m/s 594 mmHg 93%
    17:00 -12°C° 0 mm 2 m/s 593 mmHg 92%
    18:00 -13°C° 0 mm 2 m/s 593 mmHg 92%
    19:00 -15°C° 0 mm 2 m/s 592 mmHg 91%
    20:00 -15°C° 0 mm 2 m/s 592 mmHg 91%
    21:00 -15°C° 0 mm 2 m/s 592 mmHg 90%
    22:00 -16°C° 0 mm 2 m/s 591 mmHg 89%
    23:00 -16°C° 0 mm 2 m/s 591 mmHg 89%

    Mâine, 23 Ianuarie, Luni

    Timp Temperatura Precipitaţii Vânt Presiune Umiditate
    00:00 -16°C° 0 mm 2 m/s 591 mmHg 89%
    01:00 -16°C° 0 mm 2 m/s 591 mmHg 89%
    02:00 -16°C° 0 mm 2 m/s 591 mmHg 89%
    03:00 -16°C° 0 mm 2 m/s 591 mmHg 89%
    04:00 -16°C° 0 mm 2 m/s 591 mmHg 88%
    05:00 -17°C° 0 mm 2 m/s 590 mmHg 87%
    06:00 -17°C° 0 mm 2 m/s 590 mmHg 87%
    07:00 -17°C° 0 mm 2 m/s 590 mmHg 86%
    08:00 -15°C° 0 mm 2 m/s 591 mmHg 86%
    09:00 -13°C° 0 mm 2 m/s 592 mmHg 87%
    10:00 -10°C° 0 mm 2 m/s 593 mmHg 88%
    11:00 -7°C° 0 mm 1 m/s 593 mmHg 89%
    12:00 -4°C° 0 mm 1 m/s 594 mmHg 91%
    13:00 -4°C° 0 mm 0 m/s 594 mmHg 92%
    14:00 -6°C° 0 mm 0 m/s 593 mmHg 93%
    15:00 -8°C° 0 mm 0 m/s 592 mmHg 94%
    16:00 -10°C° 0 mm 0 m/s 591 mmHg 95%
    17:00 -14°C° 0 mm 0 m/s 588 mmHg 96%
    18:00 -19°C° 0 mm 0 m/s 585 mmHg 97%
    19:00 -24°C° 0 mm 0 m/s 583 mmHg 98%
    20:00 -24°C° 0 mm 0 m/s 583 mmHg 98%
    21:00 -24°C° 0 mm 0 m/s 583 mmHg 98%
    22:00 -24°C° 0 mm 0 m/s 583 mmHg 97%
    23:00 -24°C° 0 mm 1 m/s 583 mmHg 96%

    Poimâine, 24 Ianuarie, Marţi

    Timp Temperatura Precipitaţii Vânt Presiune Umiditate
    00:00 -24°C° 0 mm 1 m/s 583 mmHg 95%
    01:00 -23°C° 0 mm 1 m/s 583 mmHg 94%
    02:00 -24°C° 0 mm 1 m/s 583 mmHg 93%
    03:00 -24°C° 0 mm 1 m/s 583 mmHg 93%
    04:00 -24°C° 0 mm 1 m/s 583 mmHg 92%
    05:00 -24°C° 0 mm 1 m/s 583 mmHg 92%
    06:00 -24°C° 0 mm 1 m/s 583 mmHg 92%
    07:00 -24°C° 0 mm 1 m/s 583 mmHg 92%
    08:00 -19°C° 0 mm 1 m/s 586 mmHg 90%
    09:00 -15°C° 0 mm 1 m/s 589 mmHg 89%
    10:00 -10°C° 0 mm 1 m/s 592 mmHg 88%
    11:00 -8°C° 0 mm 1 m/s 593 mmHg 89%
    12:00 -7°C° 0 mm 1 m/s 593 mmHg 90%
    13:00 -4°C° 0 mm 1 m/s 594 mmHg 91%
    14:00 -6°C° 0 mm 1 m/s 593 mmHg 92%
    15:00 -8°C° 0 mm 1 m/s 593 mmHg 94%
    16:00 -9°C° 0 mm 1 m/s 593 mmHg 95%
    17:00 -12°C° 0 mm 1 m/s 591 mmHg 95%
    18:00 -15°C° 0 mm 1 m/s 590 mmHg 96%
    19:00 -18°C° 0 mm 1 m/s 589 mmHg 96%
    20:00 -19°C° 0 mm 1 m/s 588 mmHg 94%
    21:00 -21°C° 0 mm 1 m/s 587 mmHg 92%
    22:00 -23°C° 0 mm 1 m/s 586 mmHg 90%
    23:00 -23°C° 0 mm 1 m/s 586 mmHg 89%

    25 Ianuarie, Miercuri

    Timp Temperatura Precipitaţii Vânt Presiune Umiditate
    00:00 -23°C° 0 mm 1 m/s 586 mmHg 87%
    01:00 -23°C° 0 mm 1 m/s 586 mmHg 86%
    02:00 -22°C° 0 mm 1 m/s 587 mmHg 85%
    03:00 -22°C° 0 mm 1 m/s 587 mmHg 84%
    04:00 -22°C° 0 mm 1 m/s 587 mmHg 83%
    05:00 -22°C° 0 mm 1 m/s 587 mmHg 82%
    06:00 -22°C° 0 mm 1 m/s 587 mmHg 81%
    07:00 -22°C° 0 mm 1 m/s 587 mmHg 80%
    08:00 -17°C° 0 mm 1 m/s 590 mmHg 82%
    09:00 -12°C° 0 mm 1 m/s 593 mmHg 84%
    10:00 -8°C° 0 mm 1 m/s 596 mmHg 85%
    11:00 -6°C° 0 mm 0 m/s 597 mmHg 87%
    12:00 -5°C° 0 mm 0 m/s 597 mmHg 89%
    13:00 -3°C° 0 mm 0 m/s 597 mmHg 90%
    14:00 -5°C° 0 mm 0 m/s 596 mmHg 91%
    15:00 -7°C° 0 mm 0 m/s 595 mmHg 91%
    16:00 -9°C° 0 mm 0 m/s 594 mmHg 91%
    17:00 -13°C° 0 mm 0 m/s 592 mmHg 92%
    18:00 -17°C° 0 mm 0 m/s 590 mmHg 93%
    19:00 -21°C° 0 mm 0 m/s 588 mmHg 94%
    20:00 -20°C° 0 mm 0 m/s 588 mmHg 92%
    21:00 -20°C° 0 mm 1 m/s 589 mmHg 90%
    22:00 -20°C° 0 mm 1 m/s 589 mmHg 87%
    23:00 -18°C° 0 mm 1 m/s 590 mmHg 86%

    26 Ianuarie, Joi

    Timp Temperatura Precipitaţii Vânt Presiune Umiditate
    00:00 -17°C° 0 mm 1 m/s 591 mmHg 85%
    01:00 -15°C° 0 mm 1 m/s 592 mmHg 84%
    02:00 -14°C° 0 mm 1 m/s 593 mmHg 83%
    03:00 -15°C° 0 mm 2 m/s 593 mmHg 83%
    04:00 -14°C° 0 mm 2 m/s 594 mmHg 82%
    05:00 -14°C° 0 mm 2 m/s 594 mmHg 82%
    06:00 -14°C° 0 mm 2 m/s 594 mmHg 82%
    07:00 -14°C° 0 mm 2 m/s 594 mmHg 82%
    08:00 -12°C° 0 mm 2 m/s 595 mmHg 83%
    09:00 -8°C° 0 mm 2 m/s 597 mmHg 84%
    10:00 -4°C° 0 mm 1 m/s 598 mmHg 86%
    11:00 -3°C° 0 mm 1 m/s 598 mmHg 88%
    12:00 -2°C° 0 mm 1 m/s 599 mmHg 91%
    13:00 0°C° 0 mm 1 m/s 599 mmHg 93%
    14:00 -2°C° 0 mm 1 m/s 598 mmHg 90%
    15:00 -3°C° 0 mm 1 m/s 597 mmHg 87%
    16:00 -6°C° 0 mm 1 m/s 596 mmHg 85%
    17:00 -8°C° 0 mm 1 m/s 595 mmHg 84%
    18:00 -11°C° 0 mm 1 m/s 594 mmHg 83%
    19:00 -13°C° 0 mm 1 m/s 592 mmHg 83%
    20:00 -12°C° 0 mm 1 m/s 593 mmHg 81%
    21:00 -13°C° 0 mm 2 m/s 594 mmHg 79%
    22:00 -12°C° 0 mm 2 m/s 594 mmHg 78%
    23:00 -12°C° 0 mm 2 m/s 594 mmHg 78%

    27 Ianuarie, Vineri

    Timp Temperatura Precipitaţii Vânt Presiune Umiditate
    00:00 -12°C° 0 mm 2 m/s 594 mmHg 79%
    01:00 -12°C° 0 mm 2 m/s 594 mmHg 80%
    02:00 -12°C° 0 mm 2 m/s 594 mmHg 81%
    03:00 -12°C° 0 mm 2 m/s 594 mmHg 81%
    04:00 -12°C° 0 mm 2 m/s 593 mmHg 82%
    05:00 -13°C° 0 mm 2 m/s 593 mmHg 82%
    06:00 -13°C° 0 mm 2 m/s 593 mmHg 81%
    07:00 -13°C° 0 mm 2 m/s 593 mmHg 81%
    08:00 -10°C° 0 mm 2 m/s 594 mmHg 83%
    09:00 -7°C° 0 mm 1 m/s 595 mmHg 85%
    10:00 -4°C° 0 mm 1 m/s 597 mmHg 87%
    11:00 -3°C° 0 mm 1 m/s 597 mmHg 88%
    12:00 -2°C° 0 mm 1 m/s 597 mmHg 90%
    13:00 -1°C° 0 mm 1 m/s 597 mmHg 92%
    14:00 -2°C° 0 mm 1 m/s 597 mmHg 90%
    15:00 -3°C° 0 mm 1 m/s 596 mmHg 89%
    16:00 -6°C° 0 mm 1 m/s 596 mmHg 88%
    17:00 -8°C° 0 mm 1 m/s 595 mmHg 88%
    18:00 -10°C° 0 mm 1 m/s 595 mmHg 88%
    19:00 -12°C° 0 mm 1 m/s 594 mmHg 88%
    20:00 -13°C° 0 mm 1 m/s 594 mmHg 88%
    21:00 -13°C° 0 mm 1 m/s 594 mmHg 87%
    22:00 -14°C° 0 mm 1 m/s 594 mmHg 87%
    23:00 -14°C° 0 mm 1 m/s 594 mmHg 86%
    Arată mai mult